Weather History for Kansas City, MO

Change the Weather History Date:

Wednesday, June 26, 2013

  Actual Average Record
Temperature  
Mean Temperature 88 °F -  
Max Temperature 98 °F 83 °F 98 °F (2013)
Min Temperature 78 °F 66 °F 54 °F (2004)
Cooling Degree Days 22    
Growing Degree Days 38 (Base 50)    
Moisture  
Dew Point 66 °F    
Average Humidity 54    
Maximum Humidity 76    
Minimum Humidity 24    
Precipitation  
Precipitation 0.00 in - - ()
Sea Level Pressure  
Sea Level Pressure 29.77 in    
Wind  
Wind Speed 11 mph (West)    
Max Wind Speed 17 mph    
Max Gust Speed 24 mph    
Visibility 10 miles    
Events      
Averages and records for this station are not official NWS values.
T = Trace of Precipitation, MM = Missing Value Source: NWS Daily Summary

Daily Weather History Graph

Daily Weather History Graph

Search for Another Location

Airport:

Trip Planner

Search our weather history database for the weather conditions in past years. The results will help you decide how hot, cold, wet, or windy it might be!

Date:

Astronomy

Jun. 26, 2013 Rise Set
Actual Time 5:54 AM CDT 8:48 PM CDT
Civil Twilight 5:21 AM CDT 9:20 PM CDT
Nautical Twilight 4:41 AM CDT 10:01 PM CDT
Astronomical Twilight 3:54 AM CDT 10:48 PM CDT
Moon 11:14 PM CDT (6/26) 9:44 AM CDT (6/26)
Length of Visible Light 15h 58m
Length of Day
14h 54m
Waning Gibbous, 85% of the Moon is Illuminated
Jun 26
Waning Gibbous
Jun 29
Last Quarter
Jul 8
New
Jul 15
First Quarter
Jul 22
Full

Hourly Weather History & Observations

Time (CDT) Temp. Heat Index Dew Point Humidity Pressure Visibility Wind Dir Wind Speed Gust Speed Precip Events Conditions
12:54 AM 81.0 °F 84.1 °F 69.1 °F 67% 29.71 in 10.0 mi SSW 17.3 mph 24.2 mph N/A   Clear
1:54 AM 80.1 °F 83.2 °F 70.0 °F 71% 29.70 in 10.0 mi SSW 12.7 mph - N/A   Clear
2:54 AM 80.1 °F 83.2 °F 70.0 °F 71% 29.69 in 10.0 mi SW 12.7 mph 23.0 mph N/A   Clear
3:54 AM 79.0 °F - 70.0 °F 74% 29.68 in 10.0 mi SSW 15.0 mph 21.9 mph N/A   Clear
4:54 AM 79.0 °F - 70.0 °F 74% 29.70 in 10.0 mi SW 9.2 mph - N/A   Clear
5:54 AM 78.1 °F - 70.0 °F 76% 29.72 in 10.0 mi SSW 8.1 mph - N/A   Clear
6:54 AM 79.0 °F - 70.0 °F 74% 29.75 in 10.0 mi WSW 6.9 mph - N/A   Clear
7:54 AM 81.0 °F 84.4 °F 70.0 °F 69% 29.77 in 10.0 mi WSW 8.1 mph - N/A   Clear
8:54 AM 82.9 °F 88.0 °F 72.0 °F 69% 29.77 in 10.0 mi WSW 9.2 mph - N/A   Clear
9:54 AM 86.0 °F 93.0 °F 73.0 °F 65% 29.77 in 10.0 mi WSW 11.5 mph 16.1 mph N/A   Clear
10:54 AM 89.1 °F 97.0 °F 73.0 °F 59% 29.78 in 10.0 mi West 9.2 mph - N/A   Clear
11:54 AM 91.9 °F 99.5 °F 72.0 °F 52% 29.79 in 10.0 mi WNW 10.4 mph - N/A   Clear
12:54 PM 95.0 °F 103.2 °F 72.0 °F 47% 29.79 in 10.0 mi NW 10.4 mph 16.1 mph N/A   Clear
1:54 PM 96.1 °F 97.3 °F 63.0 °F 33% 29.78 in 10.0 mi NNW 10.4 mph - N/A   Clear
2:54 PM 97.0 °F 96.1 °F 57.9 °F 27% 29.78 in 10.0 mi WNW 8.1 mph 17.3 mph N/A   Clear
3:54 PM 97.0 °F 96.9 °F 60.1 °F 29% 29.78 in 10.0 mi NW 8.1 mph - N/A   Clear
4:54 PM 97.0 °F 95.0 °F 55.0 °F 24% 29.78 in 10.0 mi NW 11.5 mph 17.3 mph N/A   Clear
5:54 PM 96.1 °F 95.2 °F 57.9 °F 28% 29.79 in 10.0 mi North 9.2 mph - N/A   Clear
6:54 PM 93.9 °F 92.2 °F 55.9 °F 28% 29.79 in 10.0 mi NNW 8.1 mph - N/A   Clear
7:54 PM 91.0 °F 90.0 °F 57.9 °F 33% 29.81 in 10.0 mi Calm Calm - N/A   Clear
8:54 PM 87.1 °F 87.5 °F 62.1 °F 43% 29.81 in 10.0 mi WNW 3.5 mph - N/A   Clear
9:54 PM 82.0 °F 83.8 °F 64.9 °F 56% 29.83 in 10.0 mi Calm Calm - N/A   Clear
10:54 PM 80.1 °F 82.1 °F 66.0 °F 62% 29.85 in 10.0 mi Calm Calm - N/A   Clear
11:54 PM 78.1 °F - 68.0 °F 71% 29.86 in 10.0 mi Calm Calm - N/A   Clear